Grosse Ile, MI

4:48 PM EST on February 08, 2016 (GMT -0500)
Grosse Ile Municipal

Weather History for KONZ - May, 2013

Change the Weather History Date:

Friday, May 24, 2013

  Actual Average (KDTW) Record (KDTW)
Temperature  
Mean Temperature 48 °F 62 °F  
Max Temperature 57 °F 72 °F 87 °F (1977)
Min Temperature 39 °F 52 °F 33 °F (1925)
Degree Days  
Heating Degree Days 17 5  
Month to date heating degree days 181  
Since 1 July heating degree days 6075  
Cooling Degree Days 0 2  
Month to date cooling degree days 24  
Year to date cooling degree days 30  
Moisture  
Dew Point 33 °F    
Average Humidity 59    
Maximum Humidity 87    
Minimum Humidity 33    
Precipitation  
Precipitation 0.00 in 0.12 in 1.26 in (1950)
Month to date precipitation 2.58  
Year to date precipitation 11.74  
Snow  
Snow 0.00 in 0.00 in T in (1925)
Month to date snowfall 0.0  
Since 1 July snowfall 42.5  
Snow Depth -    
Sea Level Pressure  
Sea Level Pressure 30.27 in    
Wind  
Wind Speed 9 mph (North)    
Max Wind Speed 14 mph    
Max Gust Speed 23 mph    
Visibility 10 miles    
Events      
T = Trace of Precipitation, MM = Missing Value Source: NWS Daily Summary

Daily Weather History Graph

Daily Weather History Graph

Search for Another Location

Airport or City:

Trip Planner

Search our weather history database for the weather conditions in past years. The results will help you decide how hot, cold, wet, or windy it might be!

Date:

Astronomy

May. 24, 2013 Rise Set
Actual Time 6:03 AM EDT 8:55 PM EDT
Civil Twilight 5:30 AM EDT 9:28 PM EDT
Nautical Twilight 4:49 AM EDT 10:10 PM EDT
Astronomical Twilight 4:01 AM EDT 10:59 PM EDT
Moon 8:36 PM EDT (5/24) 5:36 AM EDT (5/24)
Length of Visible Light 15h 57m
Length of Day
14h 51m
Full, 100% of the Moon is Illuminated
May 24
Full
May 25
Full
May 31
Last Quarter
Jun 8
New
Jun 16
First Quarter

Hourly Weather History & Observations

Time (EDT) Temp. Windchill Dew Point Humidity Pressure Visibility Wind Dir Wind Speed Gust Speed Precip Events Conditions
12:14 AM 44.6 °F 40.2 °F 35.6 °F 71% 30.13 in 10.0 mi NNW 8.1 mph - N/A   Clear
12:34 AM 44.6 °F 39.7 °F 35.6 °F 71% 30.13 in 10.0 mi NNW 9.2 mph - N/A   Clear
12:54 AM 44.6 °F 39.7 °F 35.6 °F 71% 30.13 in 10.0 mi North 9.2 mph - N/A   Clear
1:14 AM 44.6 °F 40.7 °F 35.6 °F 71% 30.14 in 10.0 mi NNW 6.9 mph - N/A   Clear
1:34 AM 44.6 °F 40.7 °F 35.6 °F 71% 30.14 in 10.0 mi NNW 6.9 mph - N/A   Clear
1:54 AM 42.8 °F 38.6 °F 35.6 °F 76% 30.14 in 10.0 mi NNW 6.9 mph - N/A   Clear
2:14 AM 42.8 °F 38.6 °F 35.6 °F 76% 30.15 in 10.0 mi NNW 6.9 mph - N/A   Clear
2:34 AM 42.8 °F 39.3 °F 37.4 °F 81% 30.15 in 10.0 mi NNW 5.8 mph - N/A   Clear
2:54 AM 42.8 °F 39.3 °F 37.4 °F 81% 30.15 in 10.0 mi NNW 5.8 mph - N/A   Clear
3:14 AM 41.0 °F 36.4 °F 37.4 °F 87% 30.15 in 10.0 mi NNW 6.9 mph - N/A   Clear
3:34 AM 41.0 °F 37.1 °F 35.6 °F 81% 30.15 in 10.0 mi NNW 5.8 mph - N/A   Clear
3:54 AM 41.0 °F 36.4 °F 35.6 °F 81% 30.17 in 10.0 mi NNW 6.9 mph - N/A   Clear
4:14 AM 41.0 °F 35.8 °F 35.6 °F 81% 30.17 in 10.0 mi NNW 8.1 mph - N/A   Clear
4:34 AM 41.0 °F 37.1 °F 35.6 °F 81% 30.18 in 10.0 mi NNW 5.8 mph - N/A   Clear
4:54 AM 39.2 °F 35.0 °F 35.6 °F 87% 30.19 in 10.0 mi NNW 5.8 mph - N/A   Clear
5:14 AM 41.0 °F 36.4 °F 35.6 °F 81% 30.20 in 10.0 mi North 6.9 mph - N/A   Clear
5:34 AM 41.0 °F 35.8 °F 35.6 °F 81% 30.21 in 10.0 mi North 8.1 mph - N/A   Clear
5:54 AM 41.0 °F 35.2 °F 35.6 °F 81% 30.22 in 10.0 mi North 9.2 mph 17.3 mph N/A   Clear
6:14 AM 39.2 °F 33.0 °F 35.6 °F 87% 30.22 in 10.0 mi NNW 9.2 mph - N/A   Clear
6:35 AM 39.2 °F 33.6 °F 33.8 °F 81% 30.23 in 10.0 mi North 8.1 mph - N/A   Clear
6:54 AM 39.2 °F 33.6 °F 33.8 °F 81% 30.24 in 10.0 mi North 8.1 mph - N/A   Scattered Clouds
7:14 AM 41.0 °F 33.9 °F 33.8 °F 76% 30.24 in 10.0 mi North 12.7 mph - N/A   Mostly Cloudy
7:34 AM 41.0 °F 33.9 °F 33.8 °F 76% 30.25 in 10.0 mi North 12.7 mph 18.4 mph N/A   Scattered Clouds
7:54 AM 42.8 °F 36.6 °F 33.8 °F 70% 30.26 in 10.0 mi NNW 11.5 mph - N/A   Mostly Cloudy
8:14 AM 42.8 °F 36.2 °F 33.8 °F 70% 30.26 in 10.0 mi NNW 12.7 mph 16.1 mph N/A   Overcast
8:34 AM 42.8 °F 36.2 °F 32.0 °F 66% 30.28 in 10.0 mi NNW 12.7 mph 18.4 mph N/A   Overcast
8:54 AM 42.8 °F 36.6 °F 32.0 °F 66% 30.28 in 10.0 mi North 11.5 mph - N/A   Overcast
9:14 AM 42.8 °F 35.8 °F 30.2 °F 61% 30.29 in 10.0 mi NNW 13.8 mph 20.7 mph N/A   Overcast
9:34 AM 42.8 °F 36.6 °F 30.2 °F 61% 30.30 in 10.0 mi North 11.5 mph 16.1 mph N/A   Scattered Clouds
9:54 AM 44.6 °F 38.4 °F 30.2 °F 57% 30.30 in 10.0 mi North 12.7 mph 17.3 mph N/A   Scattered Clouds
10:14 AM 46.4 °F 41.5 °F 30.2 °F 53% 30.31 in 10.0 mi North 10.4 mph - N/A   Scattered Clouds
10:34 AM 46.4 °F 40.4 °F 30.2 °F 53% 30.31 in 10.0 mi North 13.8 mph 23.0 mph N/A   Mostly Cloudy
10:54 AM 46.4 °F 41.5 °F 30.2 °F 53% 30.31 in 10.0 mi North 10.4 mph 18.4 mph N/A   Scattered Clouds
11:14 AM 46.4 °F 40.7 °F 30.2 °F 53% 30.31 in 10.0 mi NW 12.7 mph 16.1 mph N/A   Mostly Cloudy
11:34 AM 48.2 °F - 30.2 °F 50% 30.32 in 10.0 mi North 11.5 mph 16.1 mph N/A   Mostly Cloudy
11:54 AM 46.4 °F 41.1 °F 30.2 °F 53% 30.32 in 10.0 mi NNW 11.5 mph 17.3 mph N/A   Mostly Cloudy
12:14 PM 50.0 °F - 30.2 °F 47% 30.33 in 10.0 mi North 9.2 mph - N/A   Scattered Clouds
12:34 PM 51.8 °F - 30.2 °F 44% 30.32 in 10.0 mi North 12.7 mph 17.3 mph N/A   Scattered Clouds
12:54 PM 51.8 °F - 30.2 °F 44% 30.33 in 10.0 mi NNW 10.4 mph 17.3 mph N/A   Scattered Clouds
1:14 PM 51.8 °F - 30.2 °F 44% 30.32 in 10.0 mi NNW 9.2 mph 16.1 mph N/A   Scattered Clouds
1:34 PM 51.8 °F - 30.2 °F 44% 30.32 in 10.0 mi NNW 10.4 mph 17.3 mph N/A   Scattered Clouds
1:54 PM 53.6 °F - 32.0 °F 44% 30.33 in 10.0 mi NNW 8.1 mph 19.6 mph N/A   Scattered Clouds
2:14 PM 53.6 °F - 28.4 °F 38% 30.32 in 10.0 mi North 13.8 mph 18.4 mph N/A   Scattered Clouds
2:34 PM 53.6 °F - 30.2 °F 41% 30.32 in 10.0 mi North 11.5 mph 20.7 mph N/A   Clear
2:54 PM 53.6 °F - 30.2 °F 41% 30.32 in 10.0 mi NNW 11.5 mph 17.3 mph N/A   Clear
3:13 PM 55.4 °F - 30.2 °F 38% 30.32 in 10.0 mi NNW 11.5 mph 17.3 mph N/A   Clear
3:34 PM 55.4 °F - 30.2 °F 38% 30.32 in 10.0 mi NW 11.5 mph 18.4 mph N/A   Clear
3:54 PM 55.4 °F - 28.4 °F 36% 30.32 in 10.0 mi North 11.5 mph - N/A   Clear
4:14 PM 55.4 °F - 30.2 °F 38% 30.31 in 10.0 mi NW 12.7 mph 18.4 mph N/A   Clear
4:34 PM 55.4 °F - 28.4 °F 36% 30.32 in 10.0 mi North 8.1 mph 21.9 mph N/A   Clear
4:55 PM 57.2 °F - 30.2 °F 36% 30.32 in 10.0 mi North 10.4 mph 17.3 mph N/A   Clear
5:14 PM 57.2 °F - 28.4 °F 33% 30.32 in 10.0 mi NNW 9.2 mph 19.6 mph N/A   Clear
5:34 PM 55.4 °F - 28.4 °F 36% 30.31 in 10.0 mi NNW 10.4 mph 16.1 mph N/A   Clear
5:54 PM 55.4 °F - 28.4 °F 36% 30.31 in 10.0 mi NNW 9.2 mph 18.4 mph N/A   Clear
6:14 PM 57.2 °F - 30.2 °F 36% 30.30 in 10.0 mi NNW 8.1 mph - N/A   Clear
6:34 PM 55.4 °F - 28.4 °F 36% 30.30 in 10.0 mi NNE 9.2 mph - N/A   Clear
6:54 PM 57.2 °F - 30.2 °F 36% 30.30 in 10.0 mi NNW 8.1 mph - N/A   Clear
7:14 PM 55.4 °F - 30.2 °F 38% 30.29 in 10.0 mi North 9.2 mph - N/A   Clear
7:34 PM 55.4 °F - 28.4 °F 36% 30.30 in 10.0 mi North 4.6 mph - N/A   Clear
7:54 PM 55.4 °F - 30.2 °F 38% 30.29 in 10.0 mi North 9.2 mph - N/A   Clear
8:14 PM 53.6 °F - 30.2 °F 41% 30.29 in 10.0 mi North 8.1 mph - N/A   Clear
8:34 PM 53.6 °F - 30.2 °F 41% 30.29 in 10.0 mi NNW 4.6 mph - N/A   Clear
8:54 PM 51.8 °F - 30.2 °F 44% 30.29 in 10.0 mi NNW 5.8 mph - N/A   Clear
9:14 PM 51.8 °F - 32.0 °F 47% 30.29 in 10.0 mi Calm Calm - N/A   Clear
9:35 PM 51.8 °F - 33.8 °F 50% 30.29 in 10.0 mi Calm Calm - N/A   Clear
9:54 PM 48.2 °F - 35.6 °F 62% 30.29 in 10.0 mi Calm Calm - N/A   Clear
10:14 PM 46.4 °F 42.4 °F 37.4 °F 71% 30.30 in 10.0 mi East 8.1 mph - N/A   Clear
10:34 PM 46.4 °F 42.4 °F 37.4 °F 71% 30.31 in 10.0 mi East 8.1 mph - N/A   Clear
10:54 PM 46.4 °F 43.5 °F 37.4 °F 71% 30.32 in 10.0 mi East 5.8 mph - N/A   Clear
11:14 PM 44.6 °F 42.2 °F 37.4 °F 76% 30.33 in 10.0 mi ENE 4.6 mph - N/A   Clear
11:34 PM 44.6 °F 40.7 °F 35.6 °F 71% 30.33 in 10.0 mi ENE 6.9 mph - N/A   Clear
11:54 PM 44.6 °F 42.2 °F 37.4 °F 76% 30.33 in 10.0 mi ENE 4.6 mph - N/A   Clear